Time,TemperatureF,DewpointF,PressureIn,WindDirection,WindDirectionDegrees,WindSpeedMPH,WindSpeedGustMPH,Humidity,HourlyPrecipIn,Conditions,Clouds,dailyrainin,SoftwareType,DateUTC
2013-03-21 00:00:00,52.7,49.2,30.09,South,182,2.0,4.0,88,0.00,,SKC,0.03,VWS V14.01,2013-03-21 07:00:00,
2013-03-21 00:09:00,52.7,49.2,30.09,South,177,4.0,4.0,88,0.00,,SKC,0.00,VWS V14.01,2013-03-21 07:09:00,
2013-03-21 00:14:00,52.6,49.2,30.09,South,175,0.0,4.0,88,0.00,,SKC,0.00,VWS V14.01,2013-03-21 07:14:00,
2013-03-21 00:19:00,52.6,49.2,30.09,South,175,1.0,4.0,88,0.00,,SKC,0.00,VWS V14.01,2013-03-21 07:19:00,
2013-03-21 00:29:00,52.6,49.2,30.09,South,175,1.0,3.0,88,0.00,,SKC,0.00,VWS V14.01,2013-03-21 07:29:00,
2013-03-21 00:34:00,52.5,49.0,30.09,South,175,0.0,4.0,88,0.00,,SKC,0.00,VWS V14.01,2013-03-21 07:34:00,
2013-03-21 00:44:00,52.4,49.0,30.09,South,175,0.0,0.0,88,0.00,,SKC,0.00,VWS V14.01,2013-03-21 07:44:00,
2013-03-21 00:49:00,52.2,48.8,30.09,South,175,0.0,1.0,88,0.00,,SKC,0.00,VWS V14.01,2013-03-21 07:49:00,
2013-03-21 00:54:00,52.1,48.7,30.09,West,267,2.0,3.0,88,0.00,,SKC,0.00,VWS V14.01,2013-03-21 07:54:00,
2013-03-21 00:59:00,52.1,48.7,30.09,West,267,1.0,2.0,88,0.00,,SKC,0.00,VWS V14.01,2013-03-21 07:59:00,
2013-03-21 01:09:00,51.9,48.5,30.09,West,267,0.0,0.0,88,0.00,,SKC,0.00,VWS V14.01,2013-03-21 08:09:00,
2013-03-21 01:14:00,51.7,48.3,30.09,West,267,0.0,0.0,88,0.00,,SKC,0.00,VWS V14.01,2013-03-21 08:14:00,
2013-03-21 01:19:00,51.5,48.1,30.09,West,267,0.0,0.0,88,0.00,,SKC,0.00,VWS V14.01,2013-03-21 08:19:00,
2013-03-21 01:29:00,51.2,47.5,30.09,West,264,0.0,4.0,87,0.00,,SKC,0.00,VWS V14.01,2013-03-21 08:29:00,
2013-03-21 01:34:00,50.9,47.2,30.09,West,264,0.0,2.0,87,0.00,,SKC,0.00,VWS V14.01,2013-03-21 08:34:00,
2013-03-21 01:39:00,50.7,47.0,30.09,West,261,0.0,1.0,87,0.00,,SKC,0.00,VWS V14.01,2013-03-21 08:39:00,
2013-03-21 01:49:00,50.5,46.8,30.09,West,262,0.0,0.0,87,0.00,,SKC,0.00,VWS V14.01,2013-03-21 08:49:00,
2013-03-21 01:54:00,50.4,46.7,30.09,West,262,0.0,0.0,87,0.00,,SKC,0.00,VWS V14.01,2013-03-21 08:54:00,
2013-03-21 01:59:00,50.3,46.9,30.08,West,262,0.0,2.0,88,0.00,,SKC,0.00,VWS V14.01,2013-03-21 08:59:00,
2013-03-21 02:04:00,50.2,46.8,30.08,West,262,0.0,2.0,88,0.00,,SKC,0.00,VWS V14.01,2013-03-21 09:04:00,
2013-03-21 02:09:00,50.3,47.2,30.08,South,189,0.0,5.0,89,0.00,,SKC,0.00,VWS V14.01,2013-03-21 09:09:00,
2013-03-21 02:14:00,50.4,48.2,30.08,SSW,192,0.0,6.0,92,0.00,,SKC,0.00,VWS V14.01,2013-03-21 09:14:00,
2013-03-21 02:19:00,50.3,46.9,30.08,South,185,5.0,5.0,88,0.00,,SKC,0.00,VWS V14.01,2013-03-21 09:19:00,
2013-03-21 02:29:00,50.0,46.3,30.08,South,173,1.0,5.0,87,0.00,,SKC,0.00,VWS V14.01,2013-03-21 09:29:00,
2013-03-21 02:34:00,49.7,46.0,30.08,WSW,244,0.0,2.0,87,0.00,,SKC,0.00,VWS V14.01,2013-03-21 09:34:00,
2013-03-21 02:39:00,49.5,45.5,30.08,SW,222,0.0,5.0,86,0.00,,SKC,0.00,VWS V14.01,2013-03-21 09:39:00,
2013-03-21 02:49:00,49.0,45.0,30.08,SSW,196,0.0,4.0,86,0.00,,SKC,0.00,VWS V14.01,2013-03-21 09:49:00,
2013-03-21 02:54:00,48.7,44.7,30.08,West,259,1.0,2.0,86,0.00,,SKC,0.00,VWS V14.01,2013-03-21 09:54:00,
2013-03-21 02:59:00,48.5,44.8,30.08,West,259,0.0,1.0,87,0.00,,SKC,0.00,VWS V14.01,2013-03-21 09:59:00,
2013-03-21 03:04:00,48.3,44.6,30.08,SW,215,1.0,5.0,87,0.00,,SKC,0.00,VWS V14.01,2013-03-21 10:04:00,
2013-03-21 03:09:00,48.1,44.1,30.08,SSW,198,2.0,5.0,86,0.00,,SKC,0.00,VWS V14.01,2013-03-21 10:09:00,
2013-03-21 03:19:00,47.8,44.1,30.08,SSW,207,0.0,6.0,87,0.00,,SKC,0.00,VWS V14.01,2013-03-21 10:19:00,
2013-03-21 03:24:00,47.6,43.9,30.08,WSW,241,1.0,5.0,87,0.00,,SKC,0.00,VWS V14.01,2013-03-21 10:24:00,
2013-03-21 03:34:00,47.2,43.8,30.08,South,172,0.0,6.0,88,0.00,,SKC,0.00,VWS V14.01,2013-03-21 10:34:00,
2013-03-21 03:44:00,46.7,43.3,30.08,South,188,2.0,5.0,88,0.00,,SKC,0.00,VWS V14.01,2013-03-21 10:44:00,
2013-03-21 03:49:00,46.5,43.4,30.08,South,187,0.0,4.0,89,0.00,,SKC,0.00,VWS V14.01,2013-03-21 10:49:00,
2013-03-21 03:54:00,46.4,43.3,30.08,South,188,0.0,0.0,89,0.00,,SKC,0.00,VWS V14.01,2013-03-21 10:54:00,
2013-03-21 03:59:00,46.3,43.5,30.08,South,187,0.0,0.0,90,0.00,,SKC,0.00,VWS V14.01,2013-03-21 10:59:00,
2013-03-21 04:04:00,46.4,43.6,30.08,South,188,0.0,5.0,90,0.00,,SKC,0.00,VWS V14.01,2013-03-21 11:04:00,
2013-03-21 04:09:00,46.4,43.6,30.09,SW,236,0.0,2.0,90,0.00,,SKC,0.00,VWS V14.01,2013-03-21 11:09:00,
2013-03-21 04:14:00,46.5,43.7,30.09,South,189,0.0,4.0,90,0.00,,SKC,0.00,VWS V14.01,2013-03-21 11:14:00,
2013-03-21 04:19:00,46.5,43.7,30.09,South,189,0.0,4.0,90,0.00,,SKC,0.00,VWS V14.01,2013-03-21 11:19:00,
2013-03-21 04:24:00,46.5,43.7,30.09,SW,234,1.0,2.0,90,0.00,,SKC,0.00,VWS V14.01,2013-03-21 11:24:00,
2013-03-21 04:29:00,46.5,43.7,30.09,WSW,238,0.0,2.0,90,0.00,,SKC,0.00,VWS V14.01,2013-03-21 11:29:00,
2013-03-21 04:34:00,46.5,43.7,30.09,SW,219,0.0,2.0,90,0.00,,SKC,0.00,VWS V14.01,2013-03-21 11:34:00,
2013-03-21 04:44:00,46.5,43.7,30.09,SSW,196,1.0,4.0,90,0.00,,SKC,0.00,VWS V14.01,2013-03-21 11:44:00,
2013-03-21 04:54:00,46.1,43.3,30.09,SW,215,0.0,3.0,90,0.00,,SKC,0.00,VWS V14.01,2013-03-21 11:54:00,
2013-03-21 05:04:00,45.6,42.8,30.09,WSW,242,0.0,0.0,90,0.00,,SKC,0.00,VWS V14.01,2013-03-21 12:04:00,
2013-03-21 05:09:00,45.5,42.7,30.09,WSW,242,0.0,0.0,90,0.00,,SKC,0.00,VWS V14.01,2013-03-21 12:09:00,
2013-03-21 05:14:00,45.2,42.5,30.09,WSW,256,0.0,5.0,90,0.00,,SKC,0.00,VWS V14.01,2013-03-21 12:14:00,
2013-03-21 05:19:00,45.0,42.2,30.09,WSW,256,0.0,0.0,90,0.00,,SKC,0.00,VWS V14.01,2013-03-21 12:19:00,
2013-03-21 05:29:00,44.3,41.6,30.09,WSW,256,0.0,0.0,90,0.00,,SKC,0.00,VWS V14.01,2013-03-21 12:29:00,
2013-03-21 05:34:00,44.1,41.4,30.08,WSW,256,0.0,0.0,90,0.00,,SKC,0.00,VWS V14.01,2013-03-21 12:34:00,
2013-03-21 05:39:00,43.8,41.1,30.09,WSW,256,0.0,0.0,90,0.00,,SKC,0.00,VWS V14.01,2013-03-21 12:39:00,
2013-03-21 05:44:00,43.4,40.7,30.08,WSW,256,0.0,0.0,90,0.00,,SKC,0.00,VWS V14.01,2013-03-21 12:44:00,
2013-03-21 05:49:00,42.9,40.2,30.08,WSW,256,0.0,0.0,90,0.00,,SKC,0.00,VWS V14.01,2013-03-21 12:49:00,
2013-03-21 05:59:00,42.1,39.4,30.07,WSW,256,0.0,0.0,90,0.00,,SKC,0.00,VWS V14.01,2013-03-21 12:59:00,
2013-03-21 06:04:00,41.4,38.7,30.07,WSW,256,0.0,2.0,90,0.00,,SKC,0.00,VWS V14.01,2013-03-21 13:04:00,
2013-03-21 06:14:00,40.8,38.4,30.07,WSW,256,0.0,0.0,91,0.00,,SKC,0.00,VWS V14.01,2013-03-21 13:14:00,
2013-03-21 06:24:00,40.5,38.1,30.08,WSW,256,0.0,0.0,91,0.00,,SKC,0.00,VWS V14.01,2013-03-21 13:24:00,
2013-03-21 06:29:00,40.2,37.8,30.09,WSW,256,0.0,0.0,91,0.00,,SKC,0.00,VWS V14.01,2013-03-21 13:29:00,
2013-03-21 06:39:00,39.9,37.8,30.10,WSW,256,0.0,0.0,92,0.00,,SKC,0.00,VWS V14.01,2013-03-21 13:39:00,
2013-03-21 06:44:00,39.8,37.7,30.09,WSW,256,0.0,0.0,92,0.00,,SKC,0.00,VWS V14.01,2013-03-21 13:44:00,
2013-03-21 06:54:00,39.8,38.0,30.09,WSW,256,0.0,0.0,93,0.00,,SKC,0.00,VWS V14.01,2013-03-21 13:54:00,
2013-03-21 07:04:00,39.4,37.3,30.09,WSW,256,0.0,0.0,92,0.00,,SKC,0.00,VWS V14.01,2013-03-21 14:04:00,
2013-03-21 07:14:00,39.1,37.2,30.10,WSW,256,0.0,0.0,93,0.00,,SKC,0.00,VWS V14.01,2013-03-21 14:14:00,
2013-03-21 07:19:00,39.0,37.2,30.09,WSW,256,0.0,0.0,93,0.00,,SKC,0.00,VWS V14.01,2013-03-21 14:19:00,
2013-03-21 07:29:00,38.8,37.0,30.09,WSW,256,0.0,0.0,93,0.00,,SKC,0.00,VWS V14.01,2013-03-21 14:29:00,
2013-03-21 07:34:00,38.7,36.8,30.10,WSW,256,0.0,2.0,93,0.00,,SKC,0.00,VWS V14.01,2013-03-21 14:34:00,
2013-03-21 07:44:00,38.8,37.0,30.10,WSW,256,0.0,2.0,93,0.00,,SKC,0.00,VWS V14.01,2013-03-21 14:44:00,
2013-03-21 07:49:00,38.9,37.0,30.10,WSW,256,0.0,0.0,93,0.00,,SKC,0.00,VWS V14.01,2013-03-21 14:49:00,
2013-03-21 07:59:00,39.4,37.8,30.10,WSW,256,0.0,0.0,94,0.00,,SKC,0.00,VWS V14.01,2013-03-21 14:59:00,
2013-03-21 08:04:00,39.7,38.1,30.10,WSW,256,0.0,0.0,94,0.00,,SKC,0.00,VWS V14.01,2013-03-21 15:04:00,
2013-03-21 08:14:00,40.5,38.9,30.10,WSW,256,0.0,0.0,94,0.00,,SKC,0.00,VWS V14.01,2013-03-21 15:14:00,
2013-03-21 08:19:00,41.1,39.8,30.10,WSW,256,0.0,0.0,95,0.00,,SKC,0.00,VWS V14.01,2013-03-21 15:19:00,
2013-03-21 08:24:00,42.0,40.7,30.10,WSW,256,0.0,1.0,95,0.00,,SKC,0.00,VWS V14.01,2013-03-21 15:24:00,
2013-03-21 08:34:00,43.2,41.6,30.10,WSW,256,0.0,2.0,94,0.00,,SKC,0.00,VWS V14.01,2013-03-21 15:34:00,
2013-03-21 08:39:00,43.6,41.7,30.10,WSW,256,0.0,0.0,93,0.00,,SKC,0.00,VWS V14.01,2013-03-21 15:39:00,
2013-03-21 08:44:00,43.9,41.7,30.10,WSW,256,0.0,0.0,92,0.00,,SKC,0.00,VWS V14.01,2013-03-21 15:44:00,
2013-03-21 08:49:00,44.6,42.4,30.10,WSW,256,0.0,1.0,92,0.00,,SKC,0.00,VWS V14.01,2013-03-21 15:49:00,
2013-03-21 08:54:00,45.5,42.7,30.10,WSW,256,0.0,0.0,90,0.00,,SKC,0.00,VWS V14.01,2013-03-21 15:54:00,
2013-03-21 09:04:00,47.5,43.5,30.10,WSW,256,0.0,0.0,86,0.00,,SKC,0.00,VWS V14.01,2013-03-21 16:04:00,
2013-03-21 09:09:00,48.5,43.9,30.10,WSW,256,0.0,0.0,84,0.00,,SKC,0.00,VWS V14.01,2013-03-21 16:09:00,
2013-03-21 09:14:00,49.2,44.0,30.10,WSW,256,0.0,0.0,82,0.00,,SKC,0.00,VWS V14.01,2013-03-21 16:14:00,
2013-03-21 09:19:00,50.0,43.8,30.10,West,259,0.0,3.0,79,0.00,,SKC,0.00,VWS V14.01,2013-03-21 16:19:00,
2013-03-21 09:24:00,50.5,43.6,30.10,West,259,0.0,0.0,77,0.00,,SKC,0.00,VWS V14.01,2013-03-21 16:24:00,
2013-03-21 09:29:00,51.3,43.7,30.10,WSW,252,0.0,2.0,75,0.00,,SKC,0.00,VWS V14.01,2013-03-21 16:29:00,
2013-03-21 09:34:00,51.9,43.5,30.10,NNW,328,0.0,4.0,73,0.00,,SKC,0.00,VWS V14.01,2013-03-21 16:34:00,
2013-03-21 09:39:00,52.4,43.3,30.10,NNW,327,0.0,2.0,71,0.00,,SKC,0.00,VWS V14.01,2013-03-21 16:39:00,
2013-03-21 09:44:00,53.5,44.7,30.10,NW,311,0.0,3.0,72,0.00,,SKC,0.00,VWS V14.01,2013-03-21 16:44:00,
2013-03-21 09:49:00,54.2,43.9,30.09,West,272,0.0,5.0,68,0.00,,SKC,0.00,VWS V14.01,2013-03-21 16:49:00,
2013-03-21 09:54:00,55.0,43.9,30.09,SW,218,1.0,5.0,66,0.00,,SKC,0.00,VWS V14.01,2013-03-21 16:54:00,
2013-03-21 09:59:00,54.2,41.9,30.09,WNW,298,1.0,5.0,63,0.00,,SKC,0.00,VWS V14.01,2013-03-21 16:59:00,
2013-03-21 10:04:00,54.4,42.9,30.09,WNW,302,1.0,5.0,65,0.00,,SKC,0.00,VWS V14.01,2013-03-21 17:04:00,
2013-03-21 10:09:00,54.3,42.4,30.09,NNE,30,0.0,6.0,64,0.00,,SKC,0.00,VWS V14.01,2013-03-21 17:09:00,
2013-03-21 10:14:00,54.7,42.4,30.09,NNW,345,1.0,7.0,63,0.00,,SKC,0.00,VWS V14.01,2013-03-21 17:14:00,
2013-03-21 10:19:00,55.5,42.7,30.09,NNE,17,0.0,5.0,62,0.00,,SKC,0.00,VWS V14.01,2013-03-21 17:19:00,
2013-03-21 10:24:00,56.4,43.1,30.09,North,355,0.0,6.0,61,0.00,,SKC,0.00,VWS V14.01,2013-03-21 17:24:00,
2013-03-21 10:29:00,56.8,43.9,30.09,WNW,285,0.0,7.0,62,0.00,,SKC,0.00,VWS V14.01,2013-03-21 17:29:00,
2013-03-21 10:34:00,57.1,43.4,30.10,West,281,7.0,7.0,60,0.00,,SKC,0.00,VWS V14.01,2013-03-21 17:34:00,
2013-03-21 10:39:00,57.5,42.8,30.10,WNW,298,2.0,9.0,58,0.00,,SKC,0.00,VWS V14.01,2013-03-21 17:39:00,
2013-03-21 10:44:00,57.6,42.5,30.09,WNW,287,1.0,8.0,57,0.00,,SKC,0.00,VWS V14.01,2013-03-21 17:44:00,
2013-03-21 10:49:00,57.9,42.8,30.09,WNW,294,4.0,7.0,57,0.00,,SKC,0.00,VWS V14.01,2013-03-21 17:49:00,
2013-03-21 10:54:00,58.3,42.7,30.09,WNW,282,4.0,7.0,56,0.00,,SKC,0.00,VWS V14.01,2013-03-21 17:54:00,
2013-03-21 10:59:00,57.4,41.8,30.09,NNW,327,2.0,9.0,56,0.00,,SKC,0.00,VWS V14.01,2013-03-21 17:59:00,
2013-03-21 11:04:00,58.1,42.5,30.09,West,268,0.0,6.0,56,0.00,,SKC,0.00,VWS V14.01,2013-03-21 18:04:00,
2013-03-21 11:09:00,59.0,42.9,30.10,NNE,28,7.0,11.0,55,0.00,,SKC,0.00,VWS V14.01,2013-03-21 18:09:00,
2013-03-21 11:14:00,59.5,42.9,30.10,West,280,4.0,9.0,54,0.00,,SKC,0.00,VWS V14.01,2013-03-21 18:14:00,
2013-03-21 11:19:00,59.4,41.8,30.09,North,355,4.0,8.0,52,0.00,,SKC,0.00,VWS V14.01,2013-03-21 18:19:00,
2013-03-21 11:24:00,59.5,42.9,30.09,WNW,292,0.0,8.0,54,0.00,,SKC,0.00,VWS V14.01,2013-03-21 18:24:00,
2013-03-21 11:29:00,60.5,42.3,30.09,NW,317,7.0,10.0,51,0.00,,SKC,0.00,VWS V14.01,2013-03-21 18:29:00,
2013-03-21 11:34:00,60.7,42.5,30.09,NNW,330,1.0,9.0,51,0.00,,SKC,0.00,VWS V14.01,2013-03-21 18:34:00,
2013-03-21 11:39:00,61.1,42.8,30.09,WNW,283,6.0,8.0,51,0.00,,SKC,0.00,VWS V14.01,2013-03-21 18:39:00,
2013-03-21 11:44:00,61.5,42.2,30.09,West,272,5.0,9.0,49,0.00,,SKC,0.00,VWS V14.01,2013-03-21 18:44:00,
2013-03-21 11:49:00,61.9,42.5,30.09,West,259,1.0,6.0,49,0.00,,SKC,0.00,VWS V14.01,2013-03-21 18:49:00,
2013-03-21 11:54:00,61.7,42.4,30.09,WSW,255,4.0,7.0,49,0.00,,SKC,0.00,VWS V14.01,2013-03-21 18:54:00,
2013-03-21 11:59:00,62.0,42.6,30.09,NW,308,2.0,7.0,49,0.00,,SKC,0.00,VWS V14.01,2013-03-21 18:59:00,
2013-03-21 12:04:00,62.2,41.7,30.09,NW,306,0.0,7.0,47,0.00,,SKC,0.00,VWS V14.01,2013-03-21 19:04:00,
2013-03-21 12:09:00,62.3,42.4,30.09,WNW,286,3.0,7.0,48,0.00,,SKC,0.00,VWS V14.01,2013-03-21 19:09:00,
2013-03-21 12:14:00,63.1,43.1,30.09,NW,323,2.0,7.0,48,0.00,,SKC,0.00,VWS V14.01,2013-03-21 19:14:00,
2013-03-21 12:19:00,63.3,42.8,30.08,WNW,296,7.0,10.0,47,0.00,,SKC,0.00,VWS V14.01,2013-03-21 19:19:00,
2013-03-21 12:24:00,63.5,42.4,30.08,WNW,298,1.0,11.0,46,0.00,,SKC,0.00,VWS V14.01,2013-03-21 19:24:00,
2013-03-21 12:29:00,63.6,42.5,30.08,WNW,288,4.0,9.0,46,0.00,,SKC,0.00,VWS V14.01,2013-03-21 19:29:00,
2013-03-21 12:34:00,63.2,41.5,30.08,West,275,2.0,8.0,45,0.00,,SKC,0.00,VWS V14.01,2013-03-21 19:34:00,
2013-03-21 12:39:00,63.3,42.8,30.07,West,272,4.0,9.0,47,0.00,,SKC,0.00,VWS V14.01,2013-03-21 19:39:00,
2013-03-21 12:44:00,63.5,42.9,30.07,WNW,303,1.0,7.0,47,0.00,,SKC,0.00,VWS V14.01,2013-03-21 19:44:00,
2013-03-21 12:49:00,63.6,42.5,30.07,NNE,24,7.0,9.0,46,0.00,,SKC,0.00,VWS V14.01,2013-03-21 19:49:00,
2013-03-21 12:54:00,63.7,42.5,30.07,WNW,299,2.0,8.0,46,0.00,,SKC,0.00,VWS V14.01,2013-03-21 19:54:00,
2013-03-21 12:59:00,64.1,43.5,30.07,NW,309,4.0,7.0,47,0.00,,SKC,0.00,VWS V14.01,2013-03-21 19:59:00,
2013-03-21 13:04:00,64.7,43.5,30.07,NNE,19,4.0,9.0,46,0.00,,SKC,0.00,VWS V14.01,2013-03-21 20:04:00,
2013-03-21 13:09:00,65.1,43.3,30.07,WNW,287,2.0,7.0,45,0.00,,SKC,0.00,VWS V14.01,2013-03-21 20:09:00,
2013-03-21 13:14:00,64.5,42.7,30.06,NNW,336,1.0,7.0,45,0.00,,SKC,0.00,VWS V14.01,2013-03-21 20:14:00,
2013-03-21 13:19:00,64.6,43.9,30.06,NNW,331,0.0,5.0,47,0.00,,SKC,0.00,VWS V14.01,2013-03-21 20:19:00,
2013-03-21 13:24:00,64.8,43.0,30.06,West,271,0.0,7.0,45,0.00,,SKC,0.00,VWS V14.01,2013-03-21 20:24:00,
2013-03-21 13:29:00,65.8,43.9,30.06,North,9,4.0,6.0,45,0.00,,SKC,0.00,VWS V14.01,2013-03-21 20:29:00,
2013-03-21 13:34:00,65.0,43.7,30.06,WNW,291,3.0,9.0,46,0.00,,SKC,0.00,VWS V14.01,2013-03-21 20:34:00,
2013-03-21 13:39:00,65.6,43.1,30.06,North,5,4.0,9.0,44,0.00,,SKC,0.00,VWS V14.01,2013-03-21 20:39:00,
2013-03-21 13:44:00,65.8,43.9,30.06,North,350,1.0,7.0,45,0.00,,SKC,0.00,VWS V14.01,2013-03-21 20:44:00,
2013-03-21 13:49:00,66.5,44.5,30.05,NW,308,5.0,6.0,45,0.00,,SKC,0.00,VWS V14.01,2013-03-21 20:49:00,
2013-03-21 13:54:00,66.3,44.3,30.05,NNE,15,4.0,8.0,45,0.00,,SKC,0.00,VWS V14.01,2013-03-21 20:54:00,
2013-03-21 13:59:00,66.1,44.7,30.05,NW,310,0.0,8.0,46,0.00,,SKC,0.00,VWS V14.01,2013-03-21 20:59:00,
2013-03-21 14:04:00,66.5,45.1,30.05,West,274,4.0,6.0,46,0.00,,SKC,0.00,VWS V14.01,2013-03-21 21:04:00,
2013-03-21 14:09:00,66.1,44.7,30.04,SSW,200,3.0,8.0,46,0.00,,SKC,0.00,VWS V14.01,2013-03-21 21:09:00,
2013-03-21 14:14:00,65.9,44.0,30.04,NNW,330,4.0,6.0,45,0.00,,SKC,0.00,VWS V14.01,2013-03-21 21:14:00,
2013-03-21 14:19:00,65.6,44.3,30.04,North,349,3.0,8.0,46,0.00,,SKC,0.00,VWS V14.01,2013-03-21 21:19:00,
2013-03-21 14:24:00,65.9,45.1,30.04,NW,306,0.0,6.0,47,0.00,,SKC,0.00,VWS V14.01,2013-03-21 21:24:00,
2013-03-21 14:29:00,66.5,45.7,30.03,NNW,336,1.0,7.0,47,0.00,,SKC,0.00,VWS V14.01,2013-03-21 21:29:00,
2013-03-21 14:34:00,66.7,45.8,30.03,WNW,282,7.0,8.0,47,0.00,,SKC,0.00,VWS V14.01,2013-03-21 21:34:00,
2013-03-21 14:39:00,66.7,45.8,30.03,SW,233,1.0,8.0,47,0.00,,SKC,0.00,VWS V14.01,2013-03-21 21:39:00,
2013-03-21 14:44:00,66.4,45.0,30.03,West,279,2.0,7.0,46,0.00,,SKC,0.00,VWS V14.01,2013-03-21 21:44:00,
2013-03-21 14:50:00,66.3,45.5,30.03,North,9,5.0,7.0,47,0.00,,SKC,0.00,VWS V14.01,2013-03-21 21:50:00,
2013-03-21 14:59:00,66.5,45.1,30.02,NW,322,1.0,6.0,46,0.00,,SKC,0.00,VWS V14.01,2013-03-21 21:59:00,
2013-03-21 15:04:00,66.4,44.4,30.02,NW,309,1.0,5.0,45,0.00,,SKC,0.00,VWS V14.01,2013-03-21 22:04:00,
2013-03-21 15:09:00,66.1,44.2,30.01,North,360,0.0,6.0,45,0.00,,SKC,0.00,VWS V14.01,2013-03-21 22:09:00,
2013-03-21 15:14:00,65.6,44.3,30.01,North,360,0.0,8.0,46,0.00,,SKC,0.00,VWS V14.01,2013-03-21 22:14:00,
2013-03-21 15:19:00,65.9,45.7,30.01,WNW,283,6.0,14.0,48,0.00,,SKC,0.00,VWS V14.01,2013-03-21 22:19:00,
2013-03-21 15:24:00,66.0,44.1,30.01,WSW,244,1.0,6.0,45,0.00,,SKC,0.00,VWS V14.01,2013-03-21 22:24:00,
2013-03-21 15:29:00,65.5,44.8,30.01,North,360,0.0,7.0,47,0.00,,SKC,0.00,VWS V14.01,2013-03-21 22:29:00,
2013-03-21 15:34:00,65.3,44.6,30.01,WNW,287,0.0,8.0,47,0.00,,SKC,0.00,VWS V14.01,2013-03-21 22:34:00,
2013-03-21 15:39:00,65.6,44.8,30.01,NNW,342,1.0,8.0,47,0.00,,SKC,0.00,VWS V14.01,2013-03-21 22:39:00,
2013-03-21 15:44:00,66.0,45.8,30.01,NW,319,6.0,6.0,48,0.00,,SKC,0.00,VWS V14.01,2013-03-21 22:44:00,
2013-03-21 15:49:00,66.2,46.0,30.00,WSW,240,1.0,6.0,48,0.00,,SKC,0.00,VWS V14.01,2013-03-21 22:49:00,
2013-03-21 15:54:00,66.2,45.4,30.00,NW,319,3.0,7.0,47,0.00,,SKC,0.00,VWS V14.01,2013-03-21 22:54:00,
2013-03-21 15:59:00,66.3,46.0,30.00,West,273,2.0,8.0,48,0.00,,SKC,0.00,VWS V14.01,2013-03-21 22:59:00,
2013-03-21 16:04:00,66.3,46.6,30.00,WNW,294,1.0,5.0,49,0.00,,SKC,0.00,VWS V14.01,2013-03-21 23:04:00,
2013-03-21 16:09:00,66.0,45.8,30.00,SW,230,0.0,7.0,48,0.00,,SKC,0.00,VWS V14.01,2013-03-21 23:09:00,
2013-03-21 16:14:00,65.9,45.7,30.00,NW,324,1.0,6.0,48,0.00,,SKC,0.00,VWS V14.01,2013-03-21 23:14:00,
2013-03-21 16:19:00,66.0,45.8,30.00,West,278,0.0,4.0,48,0.00,,SKC,0.00,VWS V14.01,2013-03-21 23:19:00,
2013-03-21 16:24:00,65.8,45.6,30.00,WNW,286,5.0,8.0,48,0.00,,SKC,0.00,VWS V14.01,2013-03-21 23:24:00,
2013-03-21 16:29:00,65.7,45.5,30.00,WNW,290,5.0,7.0,48,0.00,,SKC,0.00,VWS V14.01,2013-03-21 23:29:00,
2013-03-21 16:34:00,65.8,45.6,30.00,North,350,0.0,5.0,48,0.00,,SKC,0.00,VWS V14.01,2013-03-21 23:34:00,
2013-03-21 16:39:00,65.9,45.7,29.99,West,281,0.0,5.0,48,0.00,,SKC,0.00,VWS V14.01,2013-03-21 23:39:00,
2013-03-21 16:44:00,65.8,45.6,29.99,West,265,0.0,6.0,48,0.00,,SKC,0.00,VWS V14.01,2013-03-21 23:44:00,
2013-03-21 16:49:00,65.6,45.4,29.99,NW,306,3.0,7.0,48,0.00,,SKC,0.00,VWS V14.01,2013-03-21 23:49:00,
2013-03-21 16:54:00,65.6,45.4,29.99,WNW,286,4.0,5.0,48,0.00,,SKC,0.00,VWS V14.01,2013-03-21 23:54:00,
2013-03-21 16:59:00,65.4,45.2,29.99,NW,323,3.0,6.0,48,0.00,,SKC,0.00,VWS V14.01,2013-03-21 23:59:00,
2013-03-21 17:04:00,65.2,46.1,29.99,NW,318,3.0,6.0,50,0.00,,SKC,0.00,VWS V14.01,2013-03-22 00:04:00,
2013-03-21 17:09:00,65.2,45.0,29.99,WNW,288,0.0,7.0,48,0.00,,SKC,0.00,VWS V14.01,2013-03-22 00:09:00,
2013-03-21 17:14:00,65.1,46.0,29.99,NW,309,6.0,6.0,50,0.00,,SKC,0.00,VWS V14.01,2013-03-22 00:14:00,
2013-03-21 17:19:00,64.9,45.3,29.99,NW,309,0.0,7.0,49,0.00,,SKC,0.00,VWS V14.01,2013-03-22 00:19:00,
2013-03-21 17:24:00,64.5,45.5,29.99,WNW,302,5.0,5.0,50,0.00,,SKC,0.00,VWS V14.01,2013-03-22 00:24:00,
2013-03-21 17:29:00,64.6,45.6,29.99,West,263,0.0,8.0,50,0.00,,SKC,0.00,VWS V14.01,2013-03-22 00:29:00,
2013-03-21 17:34:00,64.7,45.1,29.99,WNW,303,0.0,6.0,49,0.00,,SKC,0.00,VWS V14.01,2013-03-22 00:34:00,
2013-03-21 17:39:00,64.8,45.7,29.99,North,355,1.0,7.0,50,0.00,,SKC,0.00,VWS V14.01,2013-03-22 00:39:00,
2013-03-21 17:44:00,65.0,46.5,29.99,WNW,290,4.0,6.0,51,0.00,,SKC,0.00,VWS V14.01,2013-03-22 00:44:00,
2013-03-21 17:49:00,65.3,46.2,29.98,WNW,300,3.0,8.0,50,0.00,,SKC,0.00,VWS V14.01,2013-03-22 00:49:00,
2013-03-21 17:54:00,65.2,46.1,29.98,SSW,201,3.0,8.0,50,0.00,,SKC,0.00,VWS V14.01,2013-03-22 00:54:00,
2013-03-21 17:59:00,65.0,45.9,29.98,NW,321,0.0,5.0,50,0.00,,SKC,0.00,VWS V14.01,2013-03-22 00:59:00,
2013-03-21 18:04:00,64.8,45.7,29.99,WNW,296,0.0,10.0,50,0.00,,SKC,0.00,VWS V14.01,2013-03-22 01:04:00,
2013-03-21 18:09:00,64.5,46.0,29.99,NW,325,1.0,8.0,51,0.00,,SKC,0.00,VWS V14.01,2013-03-22 01:09:00,
2013-03-21 18:14:00,64.1,45.6,29.99,NW,310,1.0,6.0,51,0.00,,SKC,0.00,VWS V14.01,2013-03-22 01:14:00,
2013-03-21 18:19:00,64.0,45.5,29.98,WNW,298,1.0,4.0,51,0.00,,SKC,0.00,VWS V14.01,2013-03-22 01:19:00,
2013-03-21 18:24:00,63.6,45.7,29.99,WNW,300,5.0,7.0,52,0.00,,SKC,0.00,VWS V14.01,2013-03-22 01:24:00,
2013-03-21 18:29:00,63.0,46.1,29.99,WNW,295,1.0,7.0,54,0.00,,SKC,0.00,VWS V14.01,2013-03-22 01:29:00,
2013-03-21 18:34:00,62.5,46.1,29.99,NW,313,2.0,6.0,55,0.00,,SKC,0.00,VWS V14.01,2013-03-22 01:34:00,
2013-03-21 18:39:00,62.1,45.8,29.98,WNW,283,2.0,6.0,55,0.00,,SKC,0.00,VWS V14.01,2013-03-22 01:39:00,
2013-03-21 18:44:00,61.8,46.4,29.99,WNW,282,3.0,5.0,57,0.00,,SKC,0.00,VWS V14.01,2013-03-22 01:44:00,
2013-03-21 18:49:00,61.3,46.0,29.99,NW,310,4.0,7.0,57,0.00,,SKC,0.00,VWS V14.01,2013-03-22 01:49:00,
2013-03-21 18:54:00,60.9,46.5,29.99,NW,319,1.0,6.0,59,0.00,,SKC,0.00,VWS V14.01,2013-03-22 01:54:00,
2013-03-21 18:59:00,60.4,46.0,29.99,WNW,300,4.0,6.0,59,0.00,,SKC,0.00,VWS V14.01,2013-03-22 01:59:00,
2013-03-21 19:04:00,60.0,46.1,29.99,NNW,345,0.0,6.0,60,0.00,,SKC,0.00,VWS V14.01,2013-03-22 02:04:00,
2013-03-21 19:09:00,59.6,46.2,29.99,NW,321,2.0,4.0,61,0.00,,SKC,0.00,VWS V14.01,2013-03-22 02:09:00,
2013-03-21 19:14:00,59.1,45.7,29.99,NW,318,1.0,2.0,61,0.00,,SKC,0.00,VWS V14.01,2013-03-22 02:14:00,
2013-03-21 19:19:00,59.0,46.0,29.99,WNW,296,1.0,4.0,62,0.00,,SKC,0.00,VWS V14.01,2013-03-22 02:19:00,
2013-03-21 19:25:00,58.4,46.7,29.99,WNW,296,0.0,1.0,65,0.00,,SKC,0.00,VWS V14.01,2013-03-22 02:25:00,
2013-03-21 19:34:00,56.0,45.6,30.00,NNW,340,0.0,2.0,68,0.00,,SKC,0.00,VWS V14.01,2013-03-22 02:34:00,
2013-03-21 19:39:00,55.1,45.1,30.00,NNW,340,0.0,0.0,69,0.00,,SKC,0.00,VWS V14.01,2013-03-22 02:39:00,
2013-03-21 19:44:00,54.3,45.1,30.00,NNW,340,0.0,1.0,71,0.00,,SKC,0.00,VWS V14.01,2013-03-22 02:44:00,
2013-03-21 19:49:00,53.6,44.8,30.00,NNW,340,0.0,2.0,72,0.00,,SKC,0.00,VWS V14.01,2013-03-22 02:49:00,
2013-03-21 19:59:00,52.6,44.6,30.00,NNW,340,0.0,2.0,74,0.00,,SKC,0.00,VWS V14.01,2013-03-22 02:59:00,
2013-03-21 20:04:00,52.2,44.2,30.00,NNW,340,0.0,1.0,74,0.00,,SKC,0.00,VWS V14.01,2013-03-22 03:04:00,
2013-03-21 20:09:00,51.9,44.2,30.00,NNW,340,0.0,1.0,75,0.00,,SKC,0.00,VWS V14.01,2013-03-22 03:09:00,
2013-03-21 20:14:00,51.6,44.3,30.00,NNW,340,0.0,1.0,76,0.00,,SKC,0.00,VWS V14.01,2013-03-22 03:14:00,
2013-03-21 20:19:00,51.4,44.1,30.01,NNW,340,0.0,0.0,76,0.00,,SKC,0.00,VWS V14.01,2013-03-22 03:19:00,
2013-03-21 20:24:00,51.3,44.0,30.01,NNW,340,0.0,0.0,76,0.00,,SKC,0.00,VWS V14.01,2013-03-22 03:24:00,
2013-03-21 20:30:00,51.1,43.8,30.01,NNW,340,0.0,1.0,76,0.00,,SKC,0.00,VWS V14.01,2013-03-22 03:30:00,
2013-03-21 20:39:00,50.7,43.4,30.01,NNW,340,0.0,0.0,76,0.00,,SKC,0.00,VWS V14.01,2013-03-22 03:39:00,
2013-03-21 20:44:00,50.5,43.2,30.01,NNW,340,0.0,0.0,76,0.00,,SKC,0.00,VWS V14.01,2013-03-22 03:44:00,
2013-03-21 20:49:00,50.3,43.0,30.01,NNW,340,0.0,0.0,76,0.00,,SKC,0.00,VWS V14.01,2013-03-22 03:49:00,
2013-03-21 20:54:00,50.2,43.3,30.01,NNW,340,0.0,1.0,77,0.00,,SKC,0.00,VWS V14.01,2013-03-22 03:54:00,
2013-03-21 20:59:00,50.0,43.1,30.01,NNW,340,0.0,2.0,77,0.00,,SKC,0.00,VWS V14.01,2013-03-22 03:59:00,
2013-03-21 21:04:00,49.8,42.9,30.01,NNW,340,0.0,1.0,77,0.00,,SKC,0.00,VWS V14.01,2013-03-22 04:04:00,
2013-03-21 21:10:00,49.5,42.6,30.01,NNW,340,0.0,0.0,77,0.00,,SKC,0.00,VWS V14.01,2013-03-22 04:10:00,
2013-03-21 21:14:00,49.2,42.3,30.01,NNW,340,0.0,0.0,77,0.00,,SKC,0.00,VWS V14.01,2013-03-22 04:14:00,
2013-03-21 21:19:00,48.9,42.3,30.01,NNW,340,0.0,0.0,78,0.00,,SKC,0.00,VWS V14.01,2013-03-22 04:19:00,
2013-03-21 21:24:00,48.7,42.2,30.01,NNW,340,0.0,0.0,78,0.00,,SKC,0.00,VWS V14.01,2013-03-22 04:24:00,
2013-03-21 21:29:00,48.3,42.1,30.01,NNW,340,0.0,1.0,79,0.00,,SKC,0.00,VWS V14.01,2013-03-22 04:29:00,
2013-03-21 21:34:00,48.1,41.9,30.02,NNW,340,0.0,0.0,79,0.00,,SKC,0.00,VWS V14.01,2013-03-22 04:34:00,
2013-03-21 21:39:00,47.7,41.8,30.02,NNW,340,0.0,2.0,80,0.00,,SKC,0.00,VWS V14.01,2013-03-22 04:39:00,
2013-03-21 21:44:00,47.5,42.0,30.02,NNW,340,0.0,0.0,81,0.00,,SKC,0.00,VWS V14.01,2013-03-22 04:44:00,
2013-03-21 21:49:00,47.4,41.9,30.02,NNW,340,0.0,2.0,81,0.00,,SKC,0.00,VWS V14.01,2013-03-22 04:49:00,
2013-03-21 21:55:00,47.3,41.5,30.02,NNW,340,0.0,1.0,80,0.00,,SKC,0.00,VWS V14.01,2013-03-22 04:55:00,
2013-03-21 22:05:00,46.8,41.3,30.02,NNW,340,0.0,0.0,81,0.00,,SKC,0.00,VWS V14.01,2013-03-22 05:05:00,
2013-03-21 22:14:00,46.3,41.1,30.02,NNW,340,0.0,0.0,82,0.00,,SKC,0.00,VWS V14.01,2013-03-22 05:14:00,
2013-03-21 22:19:00,46.0,40.8,30.02,NNW,340,0.0,0.0,82,0.00,,SKC,0.00,VWS V14.01,2013-03-22 05:19:00,
2013-03-21 22:24:00,45.9,41.0,30.02,NNW,340,0.0,0.0,83,0.00,,SKC,0.00,VWS V14.01,2013-03-22 05:24:00,
2013-03-21 22:29:00,45.6,40.7,30.02,NNW,340,0.0,1.0,83,0.00,,SKC,0.00,VWS V14.01,2013-03-22 05:29:00,
2013-03-21 22:35:00,45.4,40.5,30.03,NNW,340,0.0,0.0,83,0.00,,SKC,0.00,VWS V14.01,2013-03-22 05:35:00,
2013-03-21 22:44:00,45.1,40.9,30.03,NNW,340,0.0,0.0,85,0.00,,SKC,0.00,VWS V14.01,2013-03-22 05:44:00,
2013-03-21 22:50:00,45.0,40.8,30.03,NNW,340,0.0,2.0,85,0.00,,SKC,0.00,VWS V14.01,2013-03-22 05:50:00,
2013-03-21 22:59:00,44.5,40.0,30.03,NNW,340,0.0,2.0,84,0.00,,SKC,0.00,VWS V14.01,2013-03-22 05:59:00,
2013-03-21 23:04:00,44.3,40.1,30.03,NNW,340,0.0,0.0,85,0.00,,SKC,0.00,VWS V14.01,2013-03-22 06:04:00,
2013-03-21 23:09:00,44.1,39.9,30.03,NNW,340,0.0,0.0,85,0.00,,SKC,0.00,VWS V14.01,2013-03-22 06:09:00,
2013-03-21 23:14:00,44.1,40.2,30.03,NNW,340,0.0,0.0,86,0.00,,SKC,0.00,VWS V14.01,2013-03-22 06:14:00,
2013-03-21 23:24:00,43.8,39.6,30.02,NNW,340,0.0,2.0,85,0.00,,SKC,0.00,VWS V14.01,2013-03-22 06:24:00,
2013-03-21 23:29:00,43.7,39.8,30.02,NNW,340,0.0,0.0,86,0.00,,SKC,0.00,VWS V14.01,2013-03-22 06:29:00,
2013-03-21 23:35:00,43.6,39.7,30.02,NNW,340,0.0,0.0,86,0.00,,SKC,0.00,VWS V14.01,2013-03-22 06:35:00,
2013-03-21 23:40:00,43.5,39.6,30.03,NNW,340,0.0,0.0,86,0.00,,SKC,0.00,VWS V14.01,2013-03-22 06:40:00,
2013-03-21 23:49:00,43.3,39.4,30.03,NNW,340,0.0,0.0,86,0.00,,SKC,0.00,VWS V14.01,2013-03-22 06:49:00,
2013-03-21 23:54:00,43.2,39.3,30.03,NNW,340,0.0,0.0,86,0.00,,SKC,0.00,VWS V14.01,2013-03-22 06:54:00,
2013-03-21 23:59:00,43.2,39.6,30.03,NNW,340,0.0,0.0,87,0.00,,SKC,0.00,VWS V14.01,2013-03-22 06:59:00,